DMSP 5D-2 F13 DEB, 40410

Orbit data source: Space-Track

DMSP 5D-2 F13 DEB, 40410 is space debris in SSO originally from a launch on Fri, 24 Mar 1995 UTC launched from the Air Force Western Test Range (AFWTR). Debris objects in space refer to the collection of defunct objects orbiting the Earth. Examples of debris include non-operational satellites, rocket bodies, and fragments generated from explosions, collisions, or faulty payload assembly.

Loading next visibility...
Identifier
40410, 1995-015X
Orbit
SSO
Country
Flag of USUS
Related business
Manufacturer
Unknown
Mission
Spacecraft
Bus & Motor
Unknown
Mass
Unknown
Launch date (UTC)
1995-03-24 (31 years ago)
Launch vehicle
Unknown
Launch site
Air Force Western Test Range (AFWTR)
Object type
Payload
Rocket body
Debris
Shape & HBR
Unknown shape, 0.1 m
Radar Cross Section
Medium (>0.1 m² and <1 m²)

Expand to show TLE details & history
Last TLE update: 2 days ago

TLE from 2 days ago
0 DMSP 5D-2 F13 DEB
1 40410U 95015X   26252.04377419  .00001336  00000-0  57647-3 0  9996
2 40410  98.7947 278.4377 0016252 346.4652  13.6089 14.26131837596620
Epoch: 2026-09-09T01:03Z
TLE epoch observation values (Epoch: 2026-09-09T01:03:02.090Z)
Latitude
-0.00006°
Longitude
-85.42249°
Altitude
796.263 km
Speed
7.461 km/s
True Right ascension
18h 33m 45s
True Declination
0° 00' 00"
Sunlit
Object was in daylight at epoch
Visualization orbit readout
Latitude
Unknown
Longitude
Unknown
Altitude
Unknown
Speed
Unknown
Apparent Right ascension
Unknown
Apparent Declination
Unknown
Sunlit
N/A
Visualization observer readout
Local Sidereal Time
03:54:51
Azimuth
Unknown
Elevation
Unknown
Doppler factor
Unknown
Orbital elements
Apogee altitude
813.513 km
Perigee altitude
790.175 km
Semi-major axis
7,179.981 km
Eccentricity
0.00163
Inclination
98.7947°
RAAN
278.4377°
Arg. of periapsis
346.4652°
True anomaly
13.65281°
Mean anomaly
13.6089°
Eccentric anomaly
13.63084°
Mean motion
3.56745 °/min
Orbital period
100.91 mins
BSTAR
0.00057647
Loading maneuver chart data...
Computing Atmospheric mass density...

Documentation

Showing up to 5 results
|